Cairo, Egypt

3:41 AM EET on May 01, 2017 (GMT +0200)
Cairo International Airport

Weather History for HECA - March, 2013

Change the Weather History Date:

Saturday, March 30, 2013

  Actual Average Record
Temperature  
Mean Temperature 70 °F -  
Max Temperature 82 °F 80 °F 93 °F (2001)
Min Temperature 59 °F 58 °F 37 °F (2004)
Cooling Degree Days 6    
Growing Degree Days 20 (Base 50)    
Moisture  
Dew Point 43 °F    
Average Humidity 41    
Maximum Humidity 67    
Minimum Humidity 9    
Precipitation  
Precipitation 0.00 in 0.00 in - ()
Sea Level Pressure  
Sea Level Pressure 29.89 in    
Wind  
Wind Speed 13 mph ()    
Max Wind Speed 21 mph    
Max Gust Speed -    
Visibility 6.2 miles    
Events      
Averages and records for this station are not official NWS values.
T = Trace of Precipitation, MM = Missing Value Source: Averaged Metar Reports

Daily Weather History Graph

Daily Weather History Graph

Search for Another Location

Airport or City:

Trip Planner

Search our weather history database for the weather conditions in past years. The results will help you decide how hot, cold, wet, or windy it might be!

Date:

Astronomy

Mar. 30, 2013 Rise Set
Actual Time 5:46 AM EET 6:11 PM EET
Civil Twilight 5:22 AM EET 6:35 PM EET
Nautical Twilight 4:54 AM EET 7:04 PM EET
Astronomical Twilight 4:25 AM EET 7:32 PM EET
Moon 9:39 PM EET (3/30) 7:40 AM EET (3/30)
Length of Visible Light 13h 13m
Length of Day
12h 25m
Waning Gibbous, 88% of the Moon is Illuminated
Mar 30
Waning Gibbous
Apr 3
Last Quarter
Apr 10
New
Apr 18
First Quarter
Apr 25
Full

Hourly Weather History & Observations

Time (EET) Temp. Dew Point Humidity Pressure Visibility Wind Dir Wind Speed Gust Speed Precip Events Conditions
12:00 AM 64.4 °F 50.0 °F 59% 29.98 in - ENE 15.0 mph - N/A   Clear
12:30 AM 64.4 °F 50.0 °F 59% 29.98 in - ENE 15.0 mph - N/A   Clear
1:00 AM 64.4 °F 50.0 °F 59% 29.98 in - NE 11.5 mph - N/A   Clear
1:30 AM 62.6 °F 50.0 °F 63% 29.98 in - NE 11.5 mph - N/A   Clear
2:00 AM 62 °F 50 °F 54% 29.97 in 6 mi ENE 11.5 mph - -  
2:00 AM 62.6 °F 50.0 °F 63% 29.95 in - ENE 11.5 mph - N/A   Clear
2:30 AM 60.8 °F 48.2 °F 63% 29.95 in - ENE 9.2 mph - N/A   Clear
3:00 AM 60.8 °F 48.2 °F 63% 29.95 in - ENE 11.5 mph - N/A   Clear
3:30 AM 60.8 °F 48.2 °F 63% 29.92 in - ENE 10.4 mph - N/A   Clear
4:00 AM 59.0 °F 48.2 °F 67% 29.92 in - NE 9.2 mph - N/A   Clear
4:30 AM 60.8 °F 46.4 °F 59% 29.92 in - ENE 11.5 mph - N/A   Clear
5:00 AM 59.0 °F 46.4 °F 63% 29.92 in - ENE 10.4 mph - N/A   Clear
5:30 AM 59.0 °F 46.4 °F 63% 29.92 in - NE 11.5 mph - N/A   Clear
6:00 AM 59.0 °F 44.6 °F 59% 29.92 in - NE 10.4 mph - N/A   Clear
6:30 AM 60.8 °F 44.6 °F 55% 29.92 in - NE 11.5 mph - N/A   Clear
7:00 AM 62.6 °F 42.8 °F 48% 29.92 in 6.2 mi ENE 15.0 mph - N/A   Scattered Clouds
7:30 AM 66.2 °F 41.0 °F 40% 29.92 in 6.2 mi ENE 17.3 mph - N/A   Scattered Clouds
8:00 AM 67 °F 40 °F 25% 29.94 in 6 mi ENE 17.3 mph - -   Partly Cloudy
8:00 AM 68.0 °F 39.2 °F 35% 29.92 in 6.2 mi ENE 17.3 mph - N/A   Scattered Clouds
8:30 AM 69.8 °F 35.6 °F 28% 29.92 in 6.2 mi ENE 17.3 mph - N/A   Scattered Clouds
9:00 AM 69.8 °F 35.6 °F 28% 29.92 in 6.2 mi NNE 13.8 mph - N/A   Scattered Clouds
9:30 AM 71.6 °F 33.8 °F 25% 29.92 in 6.2 mi NE 16.1 mph - N/A   Scattered Clouds
10:00 AM 73.4 °F 33.8 °F 23% 29.92 in 6.2 mi NE 16.1 mph - N/A   Scattered Clouds
10:30 AM 75.2 °F 33.8 °F 22% 29.92 in 6.2 mi ENE 16.1 mph - N/A   Partly Cloudy
11:00 AM 78.8 °F 30.2 °F 17% 29.89 in 6.2 mi ENE 18.4 mph - N/A   Scattered Clouds
11:30 AM 78.8 °F 30.2 °F 17% 29.89 in 6.2 mi NE 19.6 mph - N/A   Scattered Clouds
12:00 PM 80.6 °F 30.2 °F 16% 29.89 in 6.2 mi ENE 18.4 mph - N/A   Scattered Clouds
12:30 PM 80.6 °F 30.2 °F 16% 29.86 in 6.2 mi NE 16.1 mph - N/A   Scattered Clouds
1:00 PM 80.6 °F 30.2 °F 16% 29.86 in 6.2 mi NE 16.1 mph - N/A   Scattered Clouds
1:30 PM 82.4 °F 32.0 °F 16% 29.86 in - NE 11.5 mph - N/A   Clear
2:00 PM 83 °F 33 °F 9% 29.86 in 6 mi NE 11.5 mph - -   Clear
2:00 PM 82.4 °F 33.8 °F 17% 29.86 in - NE 11.5 mph - N/A   Clear
2:30 PM 82.4 °F 39.2 °F 21% 29.86 in - NNE 12.7 mph - N/A   Clear
3:00 PM 82.4 °F 39.2 °F 21% 29.83 in - NNE 12.7 mph - N/A   Clear
3:30 PM 82.4 °F 37.4 °F 20% 29.83 in - NE 15.0 mph - N/A   Clear
4:00 PM 82.4 °F 35.6 °F 19% 29.83 in - NE 15.0 mph - N/A   Clear
4:30 PM 82.4 °F 37.4 °F 20% 29.80 in - NE 18.4 mph - N/A   Clear
5:00 PM 80.6 °F 42.8 °F 26% 29.83 in - NNE 18.4 mph - N/A   Clear
5:30 PM 77.0 °F 44.6 °F 32% 29.83 in - NE 19.6 mph - N/A   Clear
6:00 PM 75.2 °F 44.6 °F 34% 29.83 in - NE 19.6 mph - N/A   Clear
6:30 PM 73.4 °F 50.0 °F 44% 29.83 in - NNE 20.7 mph - N/A   Clear
7:00 PM 71.6 °F 50.0 °F 46% 29.83 in - NE 19.6 mph - N/A   Clear
7:30 PM 69.8 °F 50.0 °F 49% 29.86 in - NE 19.6 mph - N/A   Clear
8:00 PM 70 °F 50 °F 38% 29.86 in 6 mi NE 15.0 mph - -   Partly Cloudy
8:00 PM 69.8 °F 50.0 °F 49% 29.86 in - NE 15.0 mph - N/A   Clear
8:01 PM 69.8 °F 50.0 °F 49% 29.86 in - NE 15.0 mph - N/A   Clear
8:30 PM 69.8 °F 50.0 °F 49% 29.86 in - NE 15.0 mph - N/A   Clear
9:00 PM 68.0 °F 50.0 °F 52% 29.86 in - NE 16.1 mph - N/A   Clear
9:30 PM 68.0 °F 50.0 °F 52% 29.86 in - NE 16.1 mph - N/A   Clear
10:00 PM 68.0 °F 51.8 °F 56% 29.86 in - NE 16.1 mph - N/A   Clear
10:30 PM 66.2 °F 53.6 °F 64% 29.86 in - NE 16.1 mph - N/A   Clear
11:00 PM 66.2 °F 51.8 °F 60% 29.83 in - ENE 10.4 mph - N/A   Clear
11:30 PM 66.2 °F 51.8 °F 60% 29.83 in - NE 12.7 mph - N/A   Clear